STARLINK-30935, 58455

Orbit data source: Space-Track

STARLINK-30935, 58455 is a payload satellite owned by SpaceX/Seattle (US) in LEO that was launched on Tue, 28 Nov 2023 UTC via an FALCON 9 launch vehicle from the Air Force Eastern Test Range (AFETR). Payload-class satellites include a variety of spacecraft equipped with specific instruments for various scientific and technological missions. These include communications satellites like Starlink; space stations such as the ISS; scientific satellites like the Hubble; Earth observation satellites from companies like Planet Labs, Umbra, and HawkEye 360; GPS; miniature CubeSats for education and research; and military/defense satellites.

Loading next visibility...
Identifier
58455, 2023-183U
Orbit
LEO
Country
Flag of USUS
Related business
Manufacturer
SpaceX/Seattle
Mission
Operational Commercial Communications
Bus & Motor
STARLINK V2M, Unknown motor
Mass
730 kg wet, ~700 kg dry
Launch date (UTC)
2023-11-28 (3 years ago)
Launch vehicle
FALCON 9
Launch site
Air Force Eastern Test Range (AFETR)
Object type
Payload
Rocket body
Debris
Shape & HBR
Box + 2 Pan, 17.7 m
Radar Cross Section
33.884 m², Large (>1 m²)

Expand to show TLE details & history
Last TLE update: 2 days ago

TLE from 2 days ago
0 STARLINK-30935
1 58455U 23183U   26171.03551121  .00000300  00000-0  20430-4 0  9995
2 58455  43.0036 183.8912 0002294 283.4666  76.5930 15.27579554142387
Epoch: 2026-06-20T00:51Z
TLE epoch observation values (Epoch: 2026-06-20T00:51:08.168Z)
Latitude
-0.00002°
Longitude
-97.14877°
Altitude
482.462 km
Speed
7.626 km/s
True Right ascension
12h 15m 33s
True Declination
0° 00' 00"
Sunlit
Object was in daylight at epoch
Visualization orbit readout
Latitude
Unknown
Longitude
Unknown
Altitude
Unknown
Speed
Unknown
Apparent Right ascension
Unknown
Apparent Declination
Unknown
Sunlit
N/A
Visualization observer readout
Local Sidereal Time
21:28:56
Azimuth
Unknown
Elevation
Unknown
Doppler factor
Unknown
Orbital elements
Apogee altitude
486.569 km
Perigee altitude
483.421 km
Semi-major axis
6,863.132 km
Eccentricity
0.00023
Inclination
43.0036°
RAAN
183.8912°
Arg. of periapsis
283.4666°
True anomaly
76.61857°
Mean anomaly
76.593°
Eccentric anomaly
76.60579°
Mean motion
3.81733 °/min
Orbital period
94.31 mins
BSTAR
0.00002043
Loading maneuver chart data...
Computing Atmospheric mass density...
Loading historical data...
Loading historical data...
Loading historical data...
Loading historical data...
Loading historical data...
Loading historical data...
Loading historical data...

Documentation

Showing up to 5 results
|